COSMOS 2491 DEB, 57549

Orbit data source: Space-Track

COSMOS 2491 DEB, 57549 is space debris in LEO originally from a launch on Wed, 25 Dec 2013 UTC launched from the Plesetsk Missile And Space Complex (PKMTR). Debris objects in space refer to the collection of defunct objects orbiting the Earth. Examples of debris include non-operational satellites, rocket bodies, and fragments generated from explosions, collisions, or faulty payload assembly.

Loading next visibility...
Identifier
57549, 2013-076AL
Orbit
LEO
Country
Flag of CISCIS
Related business
Manufacturer
TsNIIKhM
Mission
Spacecraft
Bus & Motor
Unknown
Mass
Unknown
Launch date (UTC)
2013-12-25 (13 years ago)
Launch vehicle
Unknown
Launch site
Plesetsk Missile And Space Complex (PKMTR)
Object type
Payload
Rocket body
Debris
Shape & HBR
Unknown shape, 0.1 m
Radar Cross Section
Small (<0.1 m²)

Expand to show TLE details & history
Last TLE update: 2 months ago

TLE from 2 months ago
0 COSMOS 2491 DEB
1 57549U 13076AL  26204.38440998  .00096767  00000-0  41155+0 0  9996
2 57549  82.5075  70.8960 0205346   1.7427 358.4342 12.75412033148673
Epoch: 2026-07-23T09:13Z
TLE epoch observation values (Epoch: 2026-07-23T09:13:33.022Z)
Latitude
0.00002°
Longitude
-8.61776°
Altitude
1,203.855 km
Speed
7.326 km/s
True Right ascension
04h 43m 35s
True Declination
0° 00' 00"
Sunlit
Object was in daylight at epoch
Visualization orbit readout
Latitude
Unknown
Longitude
Unknown
Altitude
Unknown
Speed
Unknown
Apparent Right ascension
Unknown
Apparent Declination
Unknown
Sunlit
N/A
Visualization observer readout
Local Sidereal Time
21:39:02
Azimuth
Unknown
Elevation
Unknown
Doppler factor
Unknown
Orbital elements
Apogee altitude
1,516.119 km
Perigee altitude
1,198.431 km
Semi-major axis
7,735.412 km
Eccentricity
0.02053
Inclination
82.5075°
RAAN
70.896°
Arg. of periapsis
1.7427°
True anomaly
358.36821°
Mean anomaly
358.4342°
Eccentric anomaly
358.40138°
Mean motion
3.1902 °/min
Orbital period
112.85 mins
BSTAR
0.41155
Loading maneuver chart data...
Computing Atmospheric mass density...
Loading historical data...
Loading historical data...
Loading historical data...
Loading historical data...
Loading historical data...
Loading historical data...
Loading historical data...

Documentation

Showing up to 5 results
|